Regional Weather Roundup
Issued by NWS Grand Forks, ND

Home | Current Version | Previous Version | Graphics & Text | Print | Product List | Glossary On
Versions: 1 2 3 4 5 6 7 8 9 10 11 12 13 14 15 16 17 18 19 20 21 22 23 24 25 26 27 28 29 30 31 32 33 34 35 36 37 38 39 40 41 42 43 44 45 46 47 48 49 50
000
ASUS43 KFGF 140431
RWRFGF
PRAIRIE TO PINES  WEATHER ROUNDUP
NATIONAL WEATHER SERVICE EASTERN NORTH DAKOTA/GRAND FORKS ND
1000 PM CST WED DEC 13 2017

 **SATELLITE DATA USED TO AUGMENT SKY COVER AT AUTOMATED STATIONS**
 *****  WEATHER ACROSS EASTERN NORTH DAKOTA  *****

CITY           SKY/WX    TMP DP  RH WIND       PRES   REMARKS
GRAND FORKS    FLURRIES  19  15  84 N7        29.99S WCI  10
GRAND FRKS AFB FLURRIES  18  12  79 N5        29.99S WCI  11
GRAND FRKS NWS   N/A     18 N/A N/A N3          N/A
DEVILS LAKE    CLOUDY    21  18  88 N9        29.97R WCI  11
FARGO          CLOUDY    19  14  81 N10       30.00R WCI   7
WAHPETON ARPT    N/A     19  14  79 N10G16    30.00R WCI   8
$$

 ***** WEATHER ACROSS CENTRAL AND WESTERN NORTH DAKOTA  *****

CITY           SKY/WX    TMP DP  RH WIND       PRES   REMARKS
BISMARCK       CLOUDY    33  25  72 NW7       30.00F
MINOT          CLOUDY    32  25  75 W8        29.95S WCI  25
JAMESTOWN      CLOUDY    25  23  92 N6        29.95S WCI  18
MINOT AFB      CLOUDY    30  25  80 W8        29.94R WCI  23
GARRISON         N/A     23  21  92 W7        29.97S WCI  15
WILLISTON      CLOUDY    35  28  75 W12       30.00F
DICKINSON      CLOUDY    33  26  75 W15       29.99S WCI  23
HETTINGER      MOCLDY    32  25  75 W14       30.03S WCI  22
$$

 *****  OTHER AIRPORT OBSERVATIONS IN OUR AREA  *****

CITY           SKY/WX    TMP DP  RH WIND       PRES   REMARKS
WALHALLA       FAIR      18  18 100 N7        29.99R WCI   8
GRAFTON AIRPOR CLOUDY    16  12  86 NW7       30.01R WCI   6
VALLEY CITY AR CLOUDY    21  21 100 N6        29.97F WCI  14
CANDO          CLOUDY    21  21 100 NE5       29.97S WCI  15
CAVALIER APRT  CLOUDY    16  12  86 N8        29.99R WCI   5
GWINNER          N/A     23  21  93 N7        29.98R WCI  15
SHEYENNE NWR     N/A     20  15  82 NE7       29.95S WCI  11
ROLLA          CLOUDY    21  21 100 SE3       29.93S
 ***** THE ABOVE OBSERVATIONS ARE NON NWS ARE NOT QUALITY
       CONTROLLED AND MAY MIS-REPORT RAIN FOR SNOW...
$$

  *****  WEATHER ACROSS NORTHERN MINNESOTA  *****

CITY           SKY/WX    TMP DP  RH WIND       PRES   REMARKS
FLAG ISLAND    MOCLDY     3   1  92 CALM      29.93R
WARROAD        FAIR       3   0  85 W3        29.95S
ROSEAU         CLOUDY     9   5  85 CALM      29.96S
HALLOCK        FLURRIES  16  12  86 E3        29.98R
THF RVR FALLS  FLURRIES  14  11  87 N5        29.97F WCI   6
BAUDETTE       CLOUDY     5   3  91 NW3       29.94R
WASKISH        FLURRIES  12  10  92 CALM      29.94R
CROOKSTON      FLURRIES  16  10  79 NE8       29.99F WCI   5
STEPHEN NDAWN    N/A     16  12  86 NE6         N/A  WCI   7
GREENBUSH NDAW   N/A     12  10  92 NW5         N/A  WCI   4
$$
  *****  WEATHER ACROSS CENTRAL AND WEST MINNESOTA  *****

CITY           SKY/WX    TMP DP  RH WIND       PRES   REMARKS
FOSSTON        FLURRIES  12   9  85 CALM      29.97S
BEMIDJI        FLURRIES  12   9  87 NW3       29.94R
PARK RAPIDS    CLOUDY    14  10  84 NE6       29.92S WCI   5
ELBOW LAKE     CLOUDY    19  16  86 W7        29.97R WCI  10
WADENA         FLURRIES  14  10  85 NE3       29.94R
DETROIT LAKES  FLURRIES  18  14  86 NW7       29.97R WCI   8
MOORHEAD       MIX PCPN  18  12  79 CALM      30.01R
FERGUS FALLS   CLOUDY    19  14  79 N5        30.00R WCI  13
MORRIS MN      CLOUDY    19  16  86 NW9       29.96R WCI   9
STAPLES        CLOUDY    14  10  85 N3        29.94S
$$
  *****  WEATHER ELSEWHERE ACROSS MINNESOTA  *****

CITY           SKY/WX    TMP DP  RH WIND       PRES   REMARKS
DULUTH         FAIR      12  10  92 NW7       29.88S WCI   1
INTRNTL FALLS  CLOUDY    14  10  84 NW6       29.92S WCI   5
ELY            FLURRIES   9   7  92 NW3       29.89S
CLOQUET        FAIR      14  10  85 NW6       29.90R WCI   5
WHEATON        CLOUDY    19  16  86 N9        30.01R WCI   9
BRAINERD       CLOUDY    17  11  77 N9        29.93R WCI   6
HIBBING        CLOUDY    15  11  83 N7        29.90R WCI   5
ALEXANDRIA     CLOUDY    19  13  77 NE7       29.94R WCI  10
SAINT CLOUD    FAIR      13  10  88 NW5       29.94R WCI   5
MINNEAPOLIS    FAIR      19  15  84 N8        29.93R WCI   9
$$

  *****  WEATHER ACROSS SOUTH DAKOTA  *****

CITY           SKY/WX    TMP DP  RH WIND       PRES   REMARKS
SIOUX FALLS    CLOUDY    31  27  85 N9        29.96R WCI  23
BROOKINGS      CLOUDY    27  25  93 N8        29.94R WCI  18
WATERTOWN      CLOUDY    26  24  92 N12       29.93R WCI  16
HURON          CLOUDY    34  24  67 N9        29.98S
SISSETON         N/A     23  20  88 N10       29.97R WCI  12
ABERDEEN       FRZ RAIN  29  29 100 E8        29.99R FOG     WCI  21
MITCHELL       CLOUDY    36  24  62 NW12      30.00R
PIERRE         FAIR      29  25  85 NW8       30.03R WCI  21
MOBRIDGE       FAIR      30  25  81 NW8       29.99R WCI  22
RAPID CITY     FAIR      39  23  52 NW26G32   30.07R
$$

  *****  SOME WEATHER IN NEARBY STATES *****

CITY           SKY/WX    TMP DP  RH WIND       PRES   REMARKS
GLASGOW MT     CLOUDY    34  25  69 NW16      30.11S WCI  24
GREAT FALLS MT FAIR      29  25  85 SW10      30.34R WCI  20
CHEYENNE WY    LGT SNOW  30  27  88 N17G25    30.13R FOG     WCI  18
SCOTTSBLUFF NE CLOUDY    39  19  44 NW9       30.13R
OMAHA NE       CLOUDY    40  26  57 N13       29.95R
DES MOINES IA  CLOUDY    32  21  64 N22G31    29.92R WCI  19
DAVENPORT IA   CLOUDY    26  16  65 NW17G25   29.86R WCI  13
CHICAGO IL     CLOUDY    28  19  69 N20G30    29.72R WCI  15
EAU CLAIRE WI  FAIR      13   9  84 N5        29.90R WCI   5
LA CROSSE WI   FAIR      20  13  74 N12       29.90R WCI   8
$$

  *****  SOME NATIONAL WEATHER *****

CITY           SKY/WX    TMP DP  RH WIND       PRES   REMARKS
LA GUARDIA NY  CLOUDY    28   5  37 W15       29.67F WCI  16
RALEIGH NC     FAIR      38  18  44 SW13G24   29.73F
ATLANTA GA     FAIR      44  21  40 W13       29.86S
NEW ORLEANS LA CLOUDY    50  42  74 S6        30.01F
OKLAHOMA CITY  FAIR      42  22  44 NW6       29.94R
ALBUQUERQUE NM FAIR      32   3  29 E6        30.01S
SALT LAKE CITY CLOUDY    29  26  89 NW6       30.27R FOG     WCI  23
LOS ANGELES CA FAIR      63  44  50 CALM      29.95R
BOISE ID       CLOUDY    25  23  92 NW7       30.42R WCI  17
SEATTLE WA     FAIR      43  37  79 N13       30.38R
$$

*** WEATHER ACROSS MANITOBA...SASKATCHEWAN AND ONTARIO ***
                ***ONTARIO***

CITY           SKY/WX    TMP DP  RH WIND       PRES   REMARKS
GERALDTON      FLURRIES  -6  -9  84 NW6       29.85S WCI -18
THUNDER BAY    CLEAR     -4  -6  92 SW6       29.95R WCI -16
SIOUX LOOKOUT  PTCLDY   -13 -18  77 CALM      29.89S
TORONTO        FLURRIES  14   9  79 N13       29.57F WCI   0
BIG TROUT LK   CLEAR    -29 -35  75 CALM      29.91S HAZE
PICKLE LAKE    NOT AVBL
DRYDEN         CLEAR      1  -2  85 W5        29.89S WCI  -8
KENORA         PTCLDY     3  -2  78 NW2       29.90F
$$
                *** MANITOBA***

CITY           SKY/WX    TMP DP  RH WIND       PRES   REMARKS
BRANDON        FLURRIES  19  16  86 SE6       29.95S WCI  11
DAUPHIN        MOCLDY    19  18  93 S2        29.95F
ISLAND LAKE    CLOUDY     3  -2  78 S3        29.92
PILOT MOUND      N/A     18  16  93 N6          N/A  WCI   9
THE PAS        FLURRIES  18  14  86 NW9       30.00R WCI   6
THOMPSON       PTCLDY     0  -4  85 NW8       29.96R WCI -15
WINNIPEG       FLURRIES  14  12  92 NW7       29.97  WCI   4
LYNN LAKE      CLEAR      0  -4  85 W8        30.00S WCI -15
CHURCHILL      FLURRIES  -8 -11  84 NW15      30.04S WCI -29
GILLAM         FLURRIES   0  -4  85 NW5       29.95S WCI -10
$$
                ***SASKATCHEWAN***

CITY           SKY/WX    TMP DP  RH WIND       PRES   REMARKS
ESTEVAN        MOCLDY    30  27  86 W10       29.95S WCI  21
KINDERSLEY     PTCLDY    34  27  75 NW17G29   30.16R WCI  23
LLOYDMINSTER   MOCLDY    34  27  75 NW10      30.18R
PRINCE ALBERT  PTCLDY    32  27  80 N9        30.08R WCI  24
REGINA         MOCLDY    32  28  86 NW21      29.99R WCI  20
YORKTON        FLURRIES  30  27  86 NW8       29.92S WCI  23
N. BATTLEFORD  MOCLDY    34  28  80 NW14      30.17R WCI  24
LA RONGE       FLURRIES  23  19  86 W8        30.08S WCI  14
SASKATOON      MOCLDY    34  28  80 N16       30.09R WCI  23
SWIFT CURRENT  MOCLDY    28  25  86 NW15G21   30.11R WCI  17
$$
NOTE: THESE ARE AUTOMATED STATIONS WITH LIMITED QUALITY CONTROL
      "FAIR" INDICATES FEW OR NO CLOUDS BELOW 12,000 FEET WITH NO
      SIGNIFICANT WEATHER AND/OR OBSTRUCTIONS TO VISIBILITY.
      SKY/WX - SKY CONDITION AND SIGNIFICANT WEATHER.
      TMP - AIR TEMPERATURE.    DP   - DEWPOINT TEMPERATURE.
      RH  - RELATIVE HUMIDITY.  PRES - PRESSURE.
      HX  - HEAT INDEX.         WCI  - WIND CHILL INDEX.
$




USA.gov is the U.S. government's official web portal to all federal, state and local government web resources and services.